Weather in Susanino

Russia / Kostroma Oblast     58°08′50″N   41°35′40″E
temp.,
°C
wind,
m/s
gust,
m/s
humid.,
%
clouds,
%
prec.,
mm/h
press.,
hPa
HPBL,
m
19 september, sun
sun1900:00+1nne11785 0.0 102810
03:000ne22855 0.0 102820
06:00−1ne239599 0.0 102848
09:00+5ne356787 0.0 1028442
12:00+8ene3453100 0.0 10281108
15:00+9ne3550100 0.0 10271241
18:00+5ene3771100 0.0 1027174
21:00+3ene51277100 0.0 1028461
20 september, mon
mon2000:00+1e31082100 0.0 1029412
03:000ene41282100 0.0 1028490
06:00+1e41179100 0.0 1029550
09:00+3e51065100 0.0 1029837
12:00+6e6852100 0.0 10281073
15:00+6e5955100 0.0 10271102
18:00+5e51061100 0.0 1026986
21:00+4e5126796 0.0 1026764
21 september, tue
tue2100:00+4e51271100 0.0 1025643
03:00+4e51272100 0.0 1024599
06:00+3e51374100 0.0 1023594
09:00+5e61368100 0.0 1023800
12:00+6e61175100 0.1 10221064
15:00+6e51285100 0.8 1022889
18:00+6e51177100 0.4 1021867
21:00+6e51176100 0.5 1021741
22 september, wed
wed2200:00+5ene51284100 0.4 1020588
03:00+5ene51386100 0.6 1019589
06:00+5ene51381100 0.1 1018606
09:00+5ene5147599 0.1 1018623
12:00+8ene51265100 0.0 1017790
15:00+8ene51274100 0.6 1016885
18:00+6ene51391100 2.2 10171070
21:00+7e41194100 2.6 1017831
23 september, thu
thu2300:00+7e3996100 0.0 1017498
03:00+7e3897100 0.2 1017381
06:00+7e3798100 0.0 1017288
09:00+8ese3897100 0.1 1017408
12:00+11se4690100 0.1 1016584
15:00+11se2588100 0.3 1016424
18:00+9sse3798100 1.3 1015272
21:00+7s41092100 1.4 1016457